Lapse_Rate
0.1 -0.3 0.7 1.5 1.3 1.5 1.7 1.8 2.0 2.4 2.9 3.2 3.3 3.4 3.5 3.6 3.6 3.8 4.1 4.5 5.0 5.3 5.8 5.8 5.7 5.9 6.3 6.0 5.6 4.9 4.5 4.0 4.9 6.7 6.1 6.2 6.1 5.9 5.2 5.3 5.6 5.6 5.8
-1.0 -0.8 0.1 1.2 1.4 1.4 1.7 2.0 2.3 2.8 3.3 3.5 3.4 3.4 3.4 3.6 3.6 3.8 4.0 4.4 4.9 5.5 6.0 5.8 5.7 5.8 6.1 5.4 4.9 4.8 4.4 3.9 5.0 6.3 5.8 5.9 5.9 5.9 5.3 5.4 5.4 5.5 5.5
-0.9 -0.8 0.1 0.8 1.0 1.2 1.3 1.9 2.5 3.0 3.5 3.7 3.7 3.5 3.5 3.7 3.7 3.7 4.0 4.5 4.9 5.4 5.9 5.9 5.9 6.0 5.5 4.8 4.6 4.8 4.8 4.7 4.9 5.4 5.3 5.1 5.4 5.8 5.7 5.3 5.4 5.6 5.8
-1.2 -0.8 -0.1 0.4 0.6 1.0 1.2 1.8 2.5 3.3 3.5 3.7 3.8 3.7 3.7 3.8 3.7 3.7 3.9 4.4 4.8 5.2 5.6 5.9 6.0 5.8 5.2 4.5 4.3 4.3 4.7 4.9 5.1 4.7 4.4 4.9 5.4 5.9 5.9 5.6 5.8 5.9 6.1
-1.1 -0.9 -0.4 0.1 0.4 0.5 1.1 1.7 2.3 3.0 3.3 3.5 3.7 3.8 3.8 4.0 3.9 3.5 3.8 4.5 5.0 5.4 5.8 5.9 5.3 5.0 4.7 4.4 4.5 4.6 5.0 4.9 4.8 4.5 4.4 4.6 5.3 6.2 6.0 5.8 5.7 5.6 5.8
-1.3 -1.0 -0.9 -0.6 0.1 0.1 0.7 1.4 2.0 2.6 2.8 3.1 3.4 3.7 3.9 4.2 3.9 3.4 3.8 4.3 4.9 5.6 5.9 5.6 5.2 4.9 4.8 4.9 5.0 5.3 5.5 5.2 4.9 4.7 4.7 5.2 5.3 5.9 5.5 5.2 5.3 5.3 5.7
-1.5 -1.3 -1.2 -1.1 -0.4 -0.1 0.3 1.0 1.5 2.0 2.3 2.6 2.9 3.3 3.8 4.2 3.6 3.4 3.6 4.0 4.1 4.7 5.2 4.8 4.6 5.0 5.3 5.5 5.4 5.6 5.1 5.1 4.4 4.2 4.6 4.8 5.4 5.8 5.6 5.5 5.5 5.7 5.9
-1.6 -1.9 -1.2 -1.2 -0.7 -0.2 0.2 0.6 1.1 1.6 1.9 2.2 2.5 3.0 3.6 4.0 3.3 3.4 3.4 3.5 3.7 4.1 4.3 5.0 5.1 5.0 5.4 5.7 5.2 5.8 4.9 4.9 4.4 3.7 4.1 4.7 5.8 6.1 5.9 5.7 5.6 5.7 6.1
-2.0 -2.0 -1.7 -1.5 -0.9 -0.5 -0.1 -0.1 0.5 1.2 1.6 2.0 2.3 2.8 3.4 3.6 3.1 3.3 3.3 3.4 3.4 3.5 3.6 4.9 5.3 5.1 5.2 5.6 5.6 5.4 5.5 4.7 4.3 3.9 4.1 5.0 6.0 5.9 5.5 5.4 5.6 6.1 6.2
-2.3 -2.4 -2.2 -2.0 -1.4 -1.0 -0.4 -0.3 0.1 0.7 1.2 1.7 2.0 2.3 3.0 2.9 2.9 3.2 3.3 3.5 3.4 3.3 3.2 4.0 5.2 5.0 4.9 5.2 5.4 5.4 5.7 4.8 3.8 4.1 4.0 5.2 6.2 6.1 6.0 5.5 5.7 5.8 6.0
-1.6 -2.5 -2.6 -2.0 -2.1 -1.7 -1.0 -0.4 0.1 0.5 0.8 1.4 1.8 2.0 2.2 2.3 2.4 2.9 3.0 3.4 3.6 3.3 3.1 3.7 4.8 5.1 4.6 4.8 5.0 4.8 4.3 3.5 3.5 4.0 4.1 6.3 6.0 6.5 6.5 6.3 5.9 6.0 5.8
-1.3 -2.2 -2.1 -1.9 -1.4 -1.6 -0.7 0.0 0.4 0.4 1.0 1.1 1.4 1.2 1.6 1.2 1.6 2.4 2.8 3.3 3.6 3.4 3.4 4.1 4.4 5.1 4.5 3.7 3.3 3.6 2.7 3.4 3.6 3.7 4.4 6.3 6.0 6.6 6.7 6.5 6.0 6.0 6.1
-0.1 -1.2 -2.3 -2.0 -1.7 -1.1 -0.5 0.3 0.7 0.4 1.0 1.1 0.9 0.9 1.4 0.7 1.5 1.6 2.1 2.8 3.2 3.5 3.1 3.2 3.2 3.4 3.5 3.1 2.9 3.5 3.6 3.5 3.3 4.1 4.8 5.7 6.5 7.0 7.1 6.8 6.8 6.3 6.1
-1.0 -1.1 -1.6 -1.8 -1.6 -1.2 -0.9 0.2 0.4 0.7 0.7 1.3 0.9 1.1 1.2 1.1 0.6 0.9 1.5 1.7 2.3 2.7 2.2 2.4 2.0 2.1 2.8 3.3 3.1 3.2 3.9 4.1 3.6 3.6 4.8 6.0 6.3 6.6 7.1 7.1 7.0 6.9 6.4
0.9 -0.1 -1.6 -1.8 -1.3 -1.0 -0.2 0.0 0.5 0.6 1.1 1.2 0.8 1.8 1.7 2.0 1.4 0.9 1.1 1.7 2.0 2.7 2.6 3.0 2.8 1.7 2.2 2.9 3.3 3.8 4.4 4.7 4.2 3.3 4.3 5.7 6.2 6.4 7.0 7.6 7.5 7.6 6.7
2.0 1.1 -0.4 -1.2 -1.0 -0.7 -0.3 0.0 0.3 0.7 1.3 1.6 1.6 2.6 3.5 2.9 2.1 2.0 1.2 1.6 2.0 2.9 3.0 3.1 2.5 1.7 2.3 3.2 2.9 3.7 4.0 4.1 3.7 3.1 3.4 4.8 5.6 6.3 7.2 7.7 8.2 7.8 7.5
2.5 2.2 0.4 -0.3 -0.4 -0.4 -0.2 -0.2 0.1 0.2 0.8 1.1 1.3 2.1 2.5 2.3 2.3 2.0 2.0 1.8 2.0 2.8 3.3 3.3 2.2 2.5 2.7 3.4 3.4 3.1 3.6 4.1 3.6 3.1 3.6 4.4 5.0 5.8 6.6 7.7 7.9 7.9 7.4
2.1 1.7 1.4 1.2 -0.1 -0.2 0.3 -0.2 -0.1 0.0 0.7 0.9 1.3 2.0 2.6 2.6 2.9 2.4 2.3 2.6 2.4 2.4 2.9 2.9 2.8 2.6 2.8 3.0 3.1 3.2 3.6 4.2 4.2 3.5 3.3 3.9 4.2 4.7 5.7 7.4 7.9 7.8 7.2
1.5 2.0 1.6 1.2 0.1 -0.2 0.1 0.1 0.7 0.7 1.1 1.5 1.6 1.8 2.8 3.1 3.1 3.3 2.8 2.8 2.4 2.9 3.0 3.1 3.4 3.3 3.3 3.1 3.8 3.5 3.7 4.0 4.2 4.4 3.4 3.4 3.8 4.2 4.5 6.4 8.0 7.6 7.5
1.7 1.1 1.6 0.8 0.3 0.0 0.4 0.5 0.7 1.1 1.9 1.7 2.1 2.5 2.8 3.7 3.6 3.4 3.1 3.0 2.5 3.3 3.3 3.4 3.5 3.3 4.0 4.1 4.8 4.2 4.1 4.2 4.4 4.0 3.8 3.9 3.3 3.5 4.3 5.5 6.9 7.5 7.8
0.4 -1.3 -0.4 0.0 -0.3 -0.2 0.2 1.1 1.0 1.6 1.5 1.3 1.7 2.0 2.7 3.4 4.0 3.8 3.7 3.3 3.0 3.2 3.0 2.5 2.7 3.7 3.1 4.0 4.3 4.5 4.4 4.4 4.5 3.8 3.9 4.2 3.0 3.3 3.8 4.6 5.1 6.3 6.9
-0.7 0.6 -0.2 0.7 -0.4 0.3 0.7 0.6 -0.0 0.9 1.4 2.0 1.4 1.7 2.4 3.0 3.4 4.2 4.1 3.4 3.0 3.5 3.2 2.6 2.8 3.8 3.6 4.1 5.3 5.4 5.7 5.4 4.6 4.5 4.2 4.8 3.2 4.0 4.0 3.9 4.6 4.9 5.1
0.8 0.3 -0.3 -0.7 -0.9 -0.6 0.0 -0.4 0.4 0.7 1.1 1.5 1.2 1.7 2.1 2.9 3.3 4.1 3.9 3.6 3.1 3.1 2.8 2.0 3.0 3.3 4.1 3.8 4.5 5.2 5.6 6.1 5.4 4.1 4.1 4.8 4.6 4.3 4.5 4.1 4.2 4.2 4.3
2.5 1.9 1.5 1.7 1.7 1.8 1.6 1.9 2.3 2.1 2.2 2.1 2.4 2.5 2.1 2.0 2.8 3.7 3.6 3.5 3.4 3.2 3.1 2.4 3.0 3.4 3.7 3.6 4.4 5.5 4.8 4.7 6.3 5.3 4.6 4.4 4.5 4.7 4.2 3.9 3.4 3.7 3.9
1.8 1.9 1.6 1.8 1.5 1.5 1.1 1.2 0.9 2.2 1.9 1.5 2.1 2.5 2.8 2.4 3.1 3.5 3.8 3.7 3.8 3.9 3.7 3.2 2.9 3.7 3.6 3.7 3.7 4.2 4.9 4.7 4.9 4.9 6.0 5.3 5.0 4.8 4.3 4.0 3.4 3.3 3.4
1.0 0.6 1.2 2.0 1.5 1.4 1.6 1.6 0.9 2.0 2.8 2.9 2.9 3.6 3.6 3.6 2.9 3.9 4.0 3.8 4.0 3.9 3.9 3.4 3.7 3.8 3.3 3.4 3.5 3.9 4.1 5.3 5.2 4.5 5.1 5.3 5.0 5.4 4.6 3.7 3.0 3.5 3.4
Wind_Speed
5 7 13 12 15 16 16 17 17 17 17 17 17 18 19 20 20 21 20 19 18 18 15 14 13 14 14 15 19 21 22 23 13 9 19 20 21 21 22 19 18 19 21
12 14 17 15 15 16 16 16 17 17 17 17 17 17 19 19 18 19 19 19 18 17 15 15 15 16 16 16 19 19 21 23 22 13 17 19 19 21 21 18 18 19 22
17 18 19 19 18 18 18 17 17 17 17 17 17 17 18 18 18 18 18 16 16 16 16 15 15 16 18 18 18 19 20 20 22 21 16 13 16 20 21 19 19 22 22
17 17 18 22 22 20 19 18 18 18 17 17 17 17 17 17 17 16 16 15 15 16 16 16 16 16 15 20 20 19 19 21 20 18 14 14 18 20 21 20 20 22 21
14 17 19 22 22 23 21 19 19 18 17 17 17 17 17 17 16 16 16 16 15 15 16 17 18 18 18 19 20 19 17 17 18 16 14 16 16 19 20 19 19 20 18
13 17 20 22 23 25 23 21 20 19 19 18 17 17 17 17 16 15 15 15 14 13 14 16 17 17 19 19 20 20 19 18 17 16 13 14 15 19 19 18 18 19 20
13 12 20 24 23 25 25 24 23 21 20 20 19 18 17 17 16 16 16 14 13 13 12 15 18 19 20 19 19 19 21 19 15 14 13 13 15 19 19 19 19 20 19
14 9 16 21 22 24 24 24 23 23 22 21 20 20 19 18 18 17 16 14 13 13 13 16 18 19 20 19 19 18 20 17 14 12 12 12 17 18 20 19 19 18 18
8 9 9 17 18 20 20 22 23 23 23 22 22 20 19 19 20 19 16 13 13 13 14 16 19 20 20 18 18 18 18 17 16 13 12 13 17 19 22 21 20 18 18
7 6 8 8 12 14 16 19 22 22 23 23 24 23 22 20 20 19 17 15 14 13 14 15 18 19 19 18 18 17 13 11 12 10 13 15 17 18 19 20 20 19 18
5 6 6 8 6 8 10 15 18 20 22 21 21 22 21 14 16 17 16 18 15 14 15 16 18 19 19 18 19 18 16 10 13 12 13 19 18 17 17 16 17 18 19
11 8 8 9 11 8 8 12 14 13 15 15 15 16 15 13 13 15 15 19 14 15 16 15 14 16 14 12 7 12 11 14 12 11 14 20 17 16 18 18 16 17 18
14 8 10 10 10 13 9 10 10 9 12 12 13 16 16 12 11 10 10 11 11 13 10 9 8 8 7 11 9 10 6 11 12 11 14 20 18 16 17 17 17 18 18
12 17 11 9 10 10 7 9 7 7 9 8 10 15 12 6 6 6 6 9 8 10 7 7 4 4 6 9 12 6 10 8 10 12 16 20 19 18 19 18 18 18 18
8 10 12 12 12 11 12 9 9 8 8 9 8 14 12 7 7 6 5 8 8 10 7 7 7 5 5 7 7 9 4 9 12 11 15 23 20 20 20 17 17 18 18
11 10 10 13 12 12 11 13 11 9 12 12 12 15 17 12 6 7 6 5 6 11 9 8 8 4 4 7 6 7 7 6 9 9 13 17 20 20 20 19 18 18 17
16 17 13 15 13 14 15 13 10 10 12 11 11 20 16 12 9 8 7 7 7 14 13 10 7 5 4 4 5 5 7 8 6 10 13 15 17 20 20 19 18 18 19
13 17 16 14 16 15 14 12 10 10 10 9 12 15 20 17 14 8 8 8 12 12 11 6 5 4 4 4 4 4 4 6 8 7 12 13 16 15 18 18 19 19 19
14 17 17 16 17 18 14 10 10 11 8 8 11 11 18 18 17 10 8 7 14 8 7 7 5 5 4 4 4 4 4 5 5 7 7 11 15 16 17 19 19 21 21
11 15 17 15 16 14 9 7 6 7 8 7 8 8 15 17 19 12 8 9 11 9 8 7 9 4 4 6 5 4 3 3 4 4 6 10 13 15 18 18 19 19 23
7 11 10 12 12 12 10 10 7 9 8 7 8 9 11 14 18 14 10 11 11 11 12 12 5 9 2 5 4 3 2 4 5 5 7 7 8 13 16 18 17 17 18
5 9 16 15 14 12 10 7 3 5 5 9 7 8 11 13 15 13 12 11 12 9 11 11 12 5 3 8 4 4 3 2 3 5 5 6 6 10 12 16 16 18 17
5 4 7 9 9 7 7 5 2 4 3 3 4 6 8 10 11 13 13 11 12 10 10 13 13 13 8 7 9 4 3 4 4 3 7 7 8 7 10 13 15 17 19
5 6 6 8 9 7 8 5 4 3 3 4 5 8 8 10 10 13 12 12 12 10 11 12 12 12 12 9 6 5 2 5 4 2 4 8 7 8 9 9 13 16 17
10 8 6 6 8 7 7 8 5 2 1 0 2 5 8 7 11 13 13 15 13 11 13 14 12 11 11 11 10 9 7 2 3 3 4 6 7 9 8 8 12 15 18
10 10 6 10 8 8 6 6 10 7 2 2 2 4 5 7 7 12 14 14 14 13 13 12 14 15 13 11 10 10 10 8 6 3 3 11 11 7 7 7 6 13 17
Wind_Direction
220 160 169 164 143 136 131 127 120 116 113 115 115 114 115 119 122 122 123 122 125 126 128 127 123 124 110 106 98 104 104 103 89 117 119 117 115 113 107 101 100 103 103
139 156 166 163 148 141 139 133 126 123 119 122 123 123 122 124 123 125 126 129 133 132 132 125 120 123 124 127 117 121 126 128 134 126 113 116 118 114 108 104 101 104 103
144 159 166 163 153 151 145 140 134 132 132 129 128 128 129 128 132 131 132 137 137 135 133 131 129 129 127 122 117 116 120 123 124 123 114 111 112 113 109 105 107 106 103
146 160 165 166 157 154 149 146 141 142 139 136 136 135 134 135 133 133 135 137 135 135 135 135 132 126 121 119 114 108 109 110 113 110 111 110 112 114 112 111 110 106 102
152 161 168 167 164 153 152 150 148 146 143 142 143 140 139 142 136 132 132 133 136 139 138 135 132 129 124 121 119 112 107 105 109 104 106 109 115 121 118 117 112 111 109
159 169 169 169 170 153 154 154 152 151 150 150 149 147 149 148 142 139 137 139 139 137 134 128 132 125 127 128 120 120 125 121 116 114 107 118 121 130 126 122 119 112 110
166 170 170 169 172 157 158 158 156 157 157 156 157 155 157 156 146 146 144 148 152 150 143 123 127 131 135 138 131 120 128 130 122 119 119 124 131 132 131 128 124 121 117
163 163 173 172 171 162 161 160 159 160 163 162 164 162 164 162 153 156 154 155 158 158 155 141 140 137 142 145 141 127 131 134 121 110 125 134 139 141 135 129 124 121 120
142 158 179 173 170 163 164 162 162 164 166 167 167 167 169 165 158 161 163 167 162 168 166 161 148 148 150 148 141 122 131 133 133 134 132 138 148 146 138 134 127 124 118
133 162 178 168 161 164 167 167 165 167 170 171 170 171 173 167 165 166 164 168 166 171 181 177 157 156 157 149 143 138 138 148 141 142 140 152 156 147 142 138 138 132 127
156 181 176 162 150 149 159 171 168 170 172 174 172 171 169 169 169 169 165 162 170 182 188 182 167 165 161 159 156 146 141 149 153 155 162 164 160 151 146 143 143 144 140
190 192 186 165 167 150 156 170 175 172 178 177 177 172 170 168 172 172 173 173 178 183 188 185 183 175 162 149 128 147 149 143 155 161 171 166 165 159 149 146 150 147 145
191 182 189 176 168 165 165 173 182 181 180 182 175 172 174 163 165 164 165 172 176 177 182 182 184 173 162 131 147 167 142 143 151 163 179 169 163 160 154 153 162 157 149
184 197 183 174 171 173 162 177 181 183 187 189 189 173 172 170 170 169 170 162 170 168 159 182 166 188 162 161 161 159 143 142 159 165 171 170 168 162 160 169 170 162 158
263 198 193 174 177 173 172 177 184 188 193 191 191 180 176 180 179 169 164 166 167 165 163 175 189 198 171 129 127 134 120 166 186 168 165 179 177 169 169 177 177 165 161
233 243 186 192 183 173 176 180 185 187 195 195 193 200 202 192 177 179 169 173 172 175 179 183 196 190 156 131 117 135 145 176 179 164 165 181 186 181 174 177 181 171 168
216 211 198 193 184 183 184 179 184 187 188 194 198 200 196 190 183 181 182 180 178 184 187 195 185 170 142 151 164 132 151 156 166 165 167 174 183 182 178 180 180 173 170
224 204 198 193 189 188 190 183 183 185 189 192 192 196 199 196 186 181 184 188 181 180 184 189 176 159 159 160 138 147 157 163 163 181 155 167 171 179 182 187 184 176 172
213 217 204 190 189 191 189 181 180 177 181 191 188 193 200 198 195 192 189 184 178 183 187 183 176 170 179 158 158 150 156 161 158 170 164 171 177 179 177 188 187 183 174
227 210 206 194 191 184 174 152 159 169 183 182 188 190 190 201 198 193 186 181 176 185 184 180 182 179 181 168 150 150 122 152 149 175 191 186 183 182 181 185 190 189 180
225 184 181 181 178 166 171 173 175 185 191 184 193 188 185 197 200 196 193 188 187 191 191 183 159 173 132 155 112 125 110 164 163 192 192 196 189 191 187 186 184 178 180
307 237 168 181 172 175 174 172 159 167 196 194 190 190 190 195 199 201 198 193 187 192 190 182 171 158 148 170 160 137 165 207 191 196 182 195 196 194 196 185 181 178 174
26 16 121 133 132 143 152 129 108 90 85 133 182 203 204 196 203 201 199 196 186 192 195 186 180 175 176 185 175 146 155 194 177 179 196 191 193 199 201 190 185 181 179
126 74 75 114 122 133 142 138 135 148 169 194 195 208 206 198 198 199 194 199 188 188 197 195 186 188 177 187 190 224 189 140 180 166 185 194 189 202 201 199 185 184 181
141 132 120 99 91 87 101 112 106 103 269 336 177 197 210 212 206 206 195 194 191 192 195 191 184 193 192 180 194 194 213 182 190 149 185 181 200 203 198 203 191 185 184
133 120 95 102 93 80 65 101 98 89 23 316 264 226 223 230 216 210 204 200 195 189 191 195 193 192 196 190 194 193 200 191 187 179 161 193 200 197 199 193 189 194 191